Satellite-Ground Cal/Val Region Overpasses Predictions

Prediction of Satellite NPP Overpassing Cal/Val Region: PacNW

Region Location: (Latitude: 10.00, Longitude: 139.50) to (Latitude: 22.70, Longitude: 165.60).

Table of predicted overpasses for the next 14.0 days since TLE Epoch: 10/17/2014
Interval Starting Time Starting Location Ending Time Ending Location
1 10/17/2014 15:32:52 ( 22.68, 153.85) 10/17/2014 15:36:27 ( 10.06, 150.85)
2 10/18/2014 02:41:57 ( 10.05, 161.38) 10/18/2014 02:45:32 ( 22.67, 158.38)
3 10/18/2014 15:13:49 ( 22.66, 158.60) 10/18/2014 15:17:24 ( 10.04, 155.61)
4 10/19/2014 02:23:34 ( 12.42, 165.60) 10/19/2014 02:26:29 ( 22.69, 163.14)
5 10/19/2014 04:04:23 ( 10.02, 140.77) 10/19/2014 04:05:56 ( 15.49, 139.51)
6 10/19/2014 14:54:44 ( 22.69, 163.38) 10/19/2014 14:58:20 ( 10.01, 160.37)
7 10/20/2014 03:45:19 ( 10.05, 145.53) 10/20/2014 03:48:54 ( 22.67, 142.53)
8 10/20/2014 14:38:42 ( 12.05, 165.59) 10/20/2014 14:39:16 ( 10.05, 165.14)
9 10/20/2014 16:17:11 ( 22.66, 142.76) 10/20/2014 16:20:46 ( 10.04, 139.76)
10 10/21/2014 03:26:15 ( 10.01, 150.30) 10/21/2014 03:29:51 ( 22.69, 147.29)
11 10/21/2014 15:58:07 ( 22.69, 147.53) 10/21/2014 16:01:43 ( 10.01, 144.52)
12 10/22/2014 03:07:11 ( 10.03, 155.06) 10/22/2014 03:10:46 ( 22.66, 152.06)
13 10/22/2014 15:39:03 ( 22.67, 152.29) 10/22/2014 15:42:38 ( 10.05, 149.29)
14 10/23/2014 02:48:08 ( 10.06, 159.82) 10/23/2014 02:51:43 ( 22.68, 156.82)
15 10/23/2014 15:20:00 ( 22.65, 157.04) 10/23/2014 15:23:35 ( 10.03, 154.05)
16 10/24/2014 02:29:03 ( 10.02, 164.59) 10/24/2014 02:32:38 ( 22.65, 161.59)
17 10/24/2014 15:00:55 ( 22.68, 161.82) 10/24/2014 15:04:31 ( 10.00, 158.81)
18 10/25/2014 03:51:29 ( 10.00, 143.98) 10/25/2014 03:55:05 ( 22.69, 140.97)
19 10/25/2014 14:43:00 ( 18.67, 165.60) 10/25/2014 14:45:27 ( 10.04, 163.58)
20 10/25/2014 16:23:22 ( 22.64, 141.20) 10/25/2014 16:25:21 ( 15.66, 139.51)
21 10/26/2014 03:32:25 ( 10.03, 148.74) 10/26/2014 03:36:00 ( 22.66, 145.75)
22 10/26/2014 16:04:17 ( 22.68, 145.97) 10/26/2014 16:07:52 ( 10.06, 142.97)
23
